Cortez, CO

3:04 AM MST on December 08, 2019 (GMT -0700)
Cortez Municipal

Weather History for KCEZ - August, 2019

Change the Weather History Date:

Saturday, August 17, 2019

  Actual Average Record
Temperature  
Mean Temperature 68 °F 70 °F  
Max Temperature 91 °F 86 °F 96 °F (2002)
Min Temperature 45 °F 53 °F 42 °F (2017)
Degree Days  
Heating Degree Days 0 0  
Month to date heating degree days 0 0  
Since 1 June heating degree days 66 78  
Since 1 July heating degree days 0 3  
Cooling Degree Days 3 5  
Month to date cooling degree days 117 102  
Year to date cooling degree days 404 366  
Since 1 June cooling degree days 404 361  
Growing Degree Days 18 (Base 50)    
Moisture  
Dew Point 31 °F    
Average Humidity 34    
Maximum Humidity 58    
Minimum Humidity 9    
Precipitation  
Precipitation 0.00 in 0.05 in 0.05 in (1999)
Month to date precipitation 0.63 0.87  
Year to date precipitation 9.78 7.78  
Sea Level Pressure  
Sea Level Pressure 29.84 in    
Wind  
Wind Speed 6 mph (ESE)    
Max Wind Speed 18 mph    
Max Gust Speed 28 mph    
Visibility 10 miles    
Events      
T = Trace of Precipitation, MM = Missing Value Source: NWS Daily Summary

Daily Weather History Graph

Daily Weather History Graph

Search for Another Location

Airport or City:

Astronomy

Aug. 17, 2019 Rise Set
Actual Time 6:32 AM MDT 8:04 PM MDT
Civil Twilight 6:04 AM MDT 8:31 PM MDT
Nautical Twilight 5:31 AM MDT 9:04 PM MDT
Astronomical Twilight 4:56 AM MDT 9:39 PM MDT
Moon 9:35 PM MDT (8/17) 8:22 AM MDT (8/17)
Length of Visible Light 14h 26m
Length of Day
13h 31m
Waning Gibbous, 96% of the Moon is Illuminated
Aug 17
Waning Gibbous
Aug 23
Last Quarter
Aug 30
New
Sep 5
First Quarter
Sep 13
Full

Hourly Weather History & Observations

Time (MDT) Temp. Dew Point Humidity Pressure Visibility Wind Dir Wind Speed Gust Speed Precip Events Conditions
12:53 AM 55.9 °F 30.9 °F 39% 29.82 in 10.0 mi East 5.8 mph - N/A   Clear
1:53 AM 52.0 °F 30.0 °F 43% 29.83 in 10.0 mi East 5.8 mph - N/A   Clear
2:53 AM 48.0 °F 32.0 °F 54% 29.85 in 10.0 mi Calm Calm - N/A   Clear
3:53 AM 48.9 °F 30.9 °F 50% 29.84 in 10.0 mi ENE 5.8 mph - N/A   Clear
4:53 AM 50.0 °F 32.0 °F 50% 29.85 in 10.0 mi ENE 5.8 mph - N/A   Clear
5:53 AM 48.0 °F 32.0 °F 54% 29.87 in 10.0 mi ENE 6.9 mph - N/A   Clear
6:53 AM 46.9 °F 32.0 °F 56% 29.90 in 10.0 mi Calm Calm - N/A   Clear
7:53 AM 55.0 °F 35.1 °F 47% 29.89 in 10.0 mi ENE 4.6 mph - N/A   Clear
8:53 AM 68.0 °F 36.0 °F 31% 29.89 in 10.0 mi NNE 4.6 mph - N/A   Clear
9:53 AM 79.0 °F 37.9 °F 23% 29.88 in 10.0 mi East 4.6 mph - N/A   Clear
10:53 AM 82.0 °F 32.0 °F 16% 29.88 in 10.0 mi Variable 5.8 mph - N/A   Clear
11:53 AM 86.0 °F 28.9 °F 13% 29.86 in 10.0 mi Calm Calm - N/A   Clear
12:53 PM 88.0 °F 30.9 °F 13% 29.84 in 10.0 mi WSW 10.4 mph 24.2 mph N/A   Clear
1:53 PM 88.0 °F 30.0 °F 12% 29.83 in 10.0 mi SW 12.7 mph 21.9 mph N/A   Clear
2:53 PM 89.1 °F 33.1 °F 14% 29.82 in 10.0 mi SSE 10.4 mph - N/A   Clear
3:53 PM 90.0 °F 28.9 °F 11% 29.80 in 10.0 mi SW 12.7 mph 21.9 mph N/A   Clear
4:53 PM 89.1 °F 24.1 °F 9% 29.79 in 10.0 mi SSW 11.5 mph 18.4 mph N/A   Clear
5:53 PM 88.0 °F 23.0 °F 9% 29.79 in 10.0 mi WSW 10.4 mph - N/A   Clear
6:53 PM 86.0 °F 23.0 °F 10% 29.79 in 10.0 mi WSW 8.1 mph - N/A   Clear
7:53 PM 75.0 °F 32.0 °F 21% 29.80 in 10.0 mi South 8.1 mph - N/A   Clear
8:53 PM 64.0 °F 33.1 °F 31% 29.81 in 10.0 mi Calm Calm - N/A   Clear
9:53 PM 61.0 °F 30.9 °F 32% 29.81 in 10.0 mi ENE 8.1 mph - N/A   Clear
10:53 PM 57.9 °F 28.9 °F 33% 29.83 in 10.0 mi ENE 5.8 mph - N/A   Clear
11:53 PM 55.0 °F 28.9 °F 37% 29.83 in 10.0 mi ENE 5.8 mph - N/A   Clear